sat.trackr.live / text

‹ back to catalog

STARLINK-11384 [DTC]

NORAD 62088 · 2024-220A

PAYLOAD ACTIVE UNKNOWN

§ Identity

Operator
Country
US
Launch date
2024-11-25
Launch site
AFETR
Launch vehicle
Mass (kg)
RCS (m²)

Purposes: comms

External: N2YO · Heavens-Above · Gunter

§ Orbital elements

Epoch: 2026-05-25T03:31:00.304320Z

Period
91.67 min
Inclination
42.9997°
Eccentricity
0.0000476
Mean motion
15.70858086 rev/d
Perigee alt
356.1 km
Apogee alt
356.8 km
Semi-major
6,734.6 km
B*
1.7199e-3
RAAN
302.5919°
Arg perigee
4.1587°
Mean anomaly
355.9284°
Rev number
8,707

§ Raw data

STARLINK-11384 [DTC]1 62088U 24220A   26145.14653130  .00226534  00000+0  17199-2 0  99952 62088  42.9997 302.5919 0000476   4.1587 355.9284 15.70858086 87073

JSON: /api/v1/satellites/62088 · /tle

For live sub-satellite position, see the globe view (requires WebGL).

§ Visibility from observer

Set your observer location to see the next 7 days of passes ≥ 10°. The values pass through the URL so the page stays shareable.

No JS? Fill the form by hand. The geolocation button needs JavaScript.